www.pogodaiklimat.ru

Погода и климат >> Архив погоды >> Буркина-Фасо >> Гауа


ПОГОДА в Гауа

  • Прогноз погоды в Гауа
  • Монитор погоды в Гауа

АРХИВ ПОГОДЫ в Гауа

Время (UTC), дата Ветер
(напр.,м/с)
 
Видим.   Явления Облачность Т
(С)
Тd
(С)
f
(%)
Тe
(С)
Тes
(С)
Комфортность P
(гПа)
Po
(гПа)
Тmin
(С)
Tmax
(С)
R
(мм)
R24
(мм)
S
(см)
12 8.09 ЮЗ 2 15 км 9/6 600 м
[Cu Sc Ac trans Ci sp]
+30.3 +23.3 66 +41 +46 опасность
перегрева
1013.7 981.0
15 8.09 С 1 10 км гроза, ливневой дождь 9/1 600 м
[Cb cap Ac As]
+23.5 +22.0 91 +30 +35 очень
душно
1012.8 979.7
18 8.09 ЮВ 1 10 км гроза, ливневой дождь 9/1 600 м
[Cb cap Ac As Ci sp]
+24.9 +23.2 90 +33 +33 очень
душно
1013.4 980.3 +31.1 52
21 8.09 В 1 10 км {гроза, дождь} 9/1 600 м
[Sc Ac As Ci sp]
+23.3 +21.8 91 +32 +32 очень
душно
1014.9 981.9
00 9.09 штиль 0 10 км {гроза, дождь} 9/0
[Ac As Ci sp]
+23.2 +22.2 94 +32 +32 очень
душно
1014.6 981.8 0.6
03 9.09 штиль 0 10 км слаб. морось 9/0
[Ac As]
+23.4 +22.2 93 +32 +32 очень
душно
1013.6 980.4
06 9.09 СВ 1 15 км {морось} 9/0
[Ac As Ci sp]
+23.0 +22.1 95 +31 +31 очень
душно
1013.9 980.8 +22.7 53
09 9.09 С 1 15 км 9/9 600 м
[Sc]
+25.6 +23.3 87 +34 +36 очень
душно
1016.0 982.8
12 9.09 З 2 15 км 9/9 600 м
[Cb cap]
+29.0 +23.3 71 +39 +41 очень
душно
1014.0 981.1
15 9.09 ЮЗ 1 15 км гроза без осадков 9/4 600 м
[Cb cap Ac As Ci sp]
+27.5 +23.1 77 +37 +42 очень
душно
1010.9 978.0
18 9.09 ЮВ 1 15 км гроза без осадков 9/4 600 м
[Cb cap Ac trans Ci sp]
+27.2 +24.1 83 +38 +38 очень
душно
1011.3 978.4 +29.1 10
21 9.09 Ю 1 10 км {гроза} 8/1 600 м
[Sc Ac trans Ci sp]
+24.7 +23.7 94 +34 +34 очень
душно
1013.2 980.2
00 10.09 ЮВ 1 10 км {гроза} 8/0
[Ac trans Ci sp]
+24.2 +23.3 95 +32 +32 очень
душно
1013.1 980.3
03 10.09 Ю 1 600 м туман 9/0
[Ac trans Ci sp]
+23.3 +23.2 99 +33 +33 очень
душно
1012.4 979.5
06 10.09 штиль 0 10 км {туман} 9/4 450 м
[St Ac trans Ci sp]
+23.8 +23.4 98 +32 +32 очень
душно
1013.1 980.2 +23.2 10
09 10.09 ЮВ 1 10 км слаб. дождь 10/1 450 м
[Frnb Ac As]
+24.3 +23.4 95 +33 +36 очень
душно
1015.7 982.6
12 10.09 Ю 3 15 км в посл. час дождь 9/9 600 м
[Sc]
+25.6 +23.7 89 +35 +37 очень
душно
1014.0 981.0 11
15 10.09 ЮВ 2 15 км 9/9 600 м
[Sc]
+27.5 +23.2 77 +37 +38 очень
душно
1011.6 978.7
18 10.09 ЮВ 1 15 км 9/1 600 м
[Cu Sc Ac As Ci sp]
+26.6 +23.6 84 +36 +36 очень
душно
1011.4 978.5 +27.8 11
21 10.09 штиль 0 10 км 9/1 600 м
[Sc Ac trans Ci sp]
+25.0 +24.0 94 +34 +34 очень
душно
1012.9 979.9
00 11.09 ЮЗ 1 10 км 9/0
[Ac trans Ci sp]
+24.0 +23.3 96 +32 +32 очень
душно
1012.9 979.9
03 11.09 ЮЗ 1 10 км дымка 9/0
[Ci sp]
+23.5 +22.9 96 +31 +31 очень
душно
1011.5 978.6
06 11.09 штиль 0 200 м туман 9/0
[Ac As Ci sp]
+23.0 +22.9 99 +32 +32 очень
душно
1011.9 978.9 +22.7 11
09 11.09 ЮЗ 1 15 км {туман} 9/1 600 м
[Sc Ac trans Ci sp]
+25.5 +23.3 88 +34 +40 очень
душно
1013.3 980.3
12 11.09 З 1 15 км {туман} 9/5 600 м
[Cu Sc Ac trans Ci sp]
+30.3 +22.1 62 +39 +47 очень
душно
1012.0 979.3
15 11.09 ЮЗ 2 15 км 9/5 600 м
[Cu Sc Ci sp]
+32.2 +22.3 56 +41 +46 опасность
перегрева
1009.5 976.9
18 11.09 ЮЗ 2 15 км 9/1 600 м
[Sc Ac trans Ci sp]
+30.5 +23.4 66 +41 +41 опасность
перегрева
1009.1 976.4 +32.2
21 11.09 СВ 1 10 км 9/0
[Ac trans Ci sp]
+27.8 +24.9 84 +40 +40 очень
душно
1011.3 978.5
00 12.09 штиль 0 10 км 9/4 600 м
[Sc Ac As Ci sp]
+26.5 +25.1 92 +38 +38 очень
душно
1011.9 979.3
03 12.09 СВ 4 6000 м гроза, ливневой дождь 10/4 600 м
[Cb cap Ac As]
+21.8 +20.9 95 +28 +28 душно 1012.3 979.5
06 12.09 ЮЗ 2 10 км в посл. час дождь {гроза} 10/3 450 м
[Sc Ac As]
+21.5 +20.7 95 +27 +27 душно 1011.0 978.2 +21.2 60
09 12.09 З 1 15 км 9/4 600 м
[Sc Ac As Ci sp]
+23.4 +21.2 87 +31 +35 очень
душно
1012.8 979.9
12 12.09 Ю 1 15 км 9/4 600 м
[Cu Sc Ac trans Ci sp]
+28.1 +21.5 67 +36 +45 очень
душно
1011.9 979.2
15 12.09 В 1 15 км 9/4 600 м
[Cu Sc Ac trans Ci sp]
+30.2 +22.8 65 +40 +45 очень
душно
1008.9 976.4
18 12.09 СВ 1 15 км 9/1 600 м
[Cb cap Ac trans Ci sp]
+29.7 +23.9 71 +41 +41 опасность
перегрева
1009.7 976.9 +30.8
21 12.09 Ю 1 10 км зарница 9/3 600 м
[Cb cap Ac trans Ci sp]
+27.2 +25.4 90 +40 +40 очень
душно
1011.5 978.6
00 13.09 В 5 8000 м 9// 600 м
[Sc Ac inh Cs]
+22.9 +21.7 93 +31 +31 очень
душно
1012.8 979.9 29
03 13.09 штиль 0 10 км гроза, ливневой дождь 9/4 600 м
[Cb cap Ac As]
+23.6 +22.7 95 +31 +31 очень
душно
1011.8 979.0
06 13.09 ЮВ 1 15 км {гроза, дождь} 9/1 450 м
[Frnb Ac As Ci sp]
+23.6 +22.9 96 +31 +31 очень
душно
1011.7 979.0 +22.4 51
09 13.09 ЮВ 2 15 км 9/9 600 м
[Sc]
+25.5 +23.3 88 +34 +35 очень
душно
1013.9 981.1
12 13.09 Ю 3 15 км 9/8 600 м
[Cu Sc Ac trans Ci sp]
+27.7 +23.6 78 +38 +40 очень
душно
1014.2 981.2
15 13.09 Ю 1 15 км гроза без осадков 9/4 600 м
[Cb cap Ac As Ci sp]
+29.4 +23.1 69 +39 +44 очень
душно
1011.2 978.5
18 13.09 В 1 15 км {гроза} 9/1 600 м
[Cu Sc Ac trans Ci sp]
+28.5 +24.4 79 +40 +40 очень
душно
1010.7 977.9 +29.4
21 13.09 СВ 1 10 км 9/0
[Ac trans Ci sp]
+26.1 +25.0 94 +37 +37 очень
душно
1012.7 979.9
00 14.09 ЮЗ 1 10 км 5/0
[Ci sp]
+25.0 +23.6 92 +34 +34 очень
душно
1013.4 980.6
03 14.09 Ю 1 10 км 9/0
[Ac trans Ci sp]
+24.1 +23.2 95 +32 +32 очень
душно
1012.2 979.4
06 14.09 В 1 15 км 9/0
[Ac trans Ci sp]
+23.4 +22.5 95 +32 +32 очень
душно
1012.4 979.5 +23.2
09 14.09 Ю 1 15 км 9/1 600 м
[Cu Sc Ci sp]
+27.6 +24.5 83 +39 +47 очень
душно
1013.9 981.1
12 14.09 Ю 2 15 км 9/6 600 м
[Cu Sc Ci sp]
+31.2 +22.9 61 +41 +48 опасность
перегрева
1011.5 979.0
15 14.09 ЮЗ 1 15 км 9/4 600 м
[Cu Sc Ci sp]
+32.3 +22.6 57 +42 +49 опасность
перегрева
1009.5 977.0
18 14.09 штиль 0 15 км гроза без осадков 9/4 600 м
[Cb cap Ci sp]
+32.1 +24.6 65 +45 +45 опасность
перегрева
1009.5 976.9 +32.9
21 14.09 штиль 0 10 км {гроза} 9/3 600 м
[Cu Sc Ci sp]
+27.7 +25.0 85 +40 +40 очень
душно
1011.5 978.8
00 15.09 Ю 2 15 км 9/6 600 м
[Cu Sc Ci sp]
+31.2 +22.9 61 +41 +41 опасность
перегрева
1011.5 979.0
03 15.09 З 1 10 км гроза, ливневой дождь 9/3 600 м
[Cb cap Ac As Ci sp]
+22.0 +20.3 90 +28 +28 душно 1011.4 978.7
06 15.09 Ю 1 15 км {гроза, дождь} 9/1 600 м
[Sc Ac As Ci sp]
+21.7 +19.9 90 +27 +27 душно 1011.0 978.3 +21.4 10
09 15.09 Ю 1 15 км 9/0
[Ac trans Ci sp]
+24.0 +21.0 83 +30 +35 очень
душно
1011.8 979.0

 

Местоположение метеостанции Гауа (Буркина-Фасо): широта 10.33 долгота -3.18 высота над уровнем моря 335 м.

В архиве по умолчанию представлена погода в Гауа за последнюю неделю. Архивные данные за месяц целиком и за предыдущие месяцы, начиная с января 2011 года, Вы можете получить, выбрав интересующий диапазон дат из раскрывающегося списка и нажав кнопку "Ввод!".


*Определитесь, кто Вы:
робот инопланетянин человек

Внимание! Время в таблицах - всемирное. Для получения местного времени необходимо прибавить поправку, которая равна 0 ч.

Смотрите также архив погоды в соседних городах и на ближайших метеорологических станциях:

Погода в Ва (Гана) (81 км)
Погода в Бобо-Диуласо (Буркина-Фасо) (156 км)
Погода в Боромо (Буркина-Фасо) (160 км)
Погода в Боле (Гана) (164 км)
Погода в Навронго (Гана) (236 км)
Погода в По (Буркина-Фасо) (240 км)
Погода в Дедугу (Буркина-Фасо) (240 км)
Погода в Бондуку (Кот-д'Ивуар) (257 км)
Погода в Тамале (Гана) (271 км)
Погода в Корого (Кот-д'Ивуар) (286 км)

Пояснения к столбцам:

Ветер - указаны скорость ветра в м/с - средняя за 10 мин, порывы в срок и между сроками (в фигурных скобках) и направление, откуда дует ветер: С - северный, СВ - северо-восточный, В - восточный, ЮВ - юго-восточный, Ю - южный, ЮЗ - юго-западный, З - западный, СЗ - северо-западный.
Видимость - горизонтальная дальность видимости в метрах или километрах. При видимости от 1 до 10 км при отсутствии осадков обычно наблюдается дымка, при ухудшении видимости до 1 км и менее - туман. В сухую погоду видимость может ухудшаться дымом, пылью или мглою.
Явления - указаны атмосферные явления, наблюдавшиеся в срок или в последний час перед сроком; фигурными скобками обозначены явления, наблюдавшиеся между сроками (за 1-3 часа до срока); квадратными скобками обозначены град или гололедные отложения с указанием их диаметра в мм.
Облачность - указаны через наклонную черту общая и нижняя облачность в баллах и высота нижней границы облаков в метрах; квадратными скобками обозначены формы облаков: Ci - перистые, Cs - перисто-слоистые, Cc - перисто-кучевые, Ac - высококучевые, As - высокослоистые, Sc - слоисто-кучевые, Ns - слоисто-дождевые, Cu - кучевые, Cb - кучево-дождевые. Подробнее классификацию облаков см. в Атласе облаков (PDF).
T - Температура воздуха - температура, измеренная на высоте 2 м над землей.
Td - Температура точки росы - температура, при понижении до которой содержащийся в воздухе водяной пар достигнет насыщения.
f - Относительная влажность воздуха - влажноcть воздуха, измеренная на высоте 2 м над землей.
Te - Эффективная температура - температура, которую ощущает одетый по сезону человек в тени. Характеристика душности погоды. При расчете учитывается влияние влажности воздуха и скорости ветра на теплоощущения человека.
Tes - Эффективная температура на солнце - температура, которую ощущает человек, с поправкой на солнечный нагрев. Характеристика знойности погоды. Зависит от высоты солнца над горизонтом, облачности и скорости ветра. Ночью, в пасмурную погоду, а также при ветре 12 м/с и более поправка равна нулю.
P - Атмосферное давление - приведенное к уровню моря атмосферное давление.
Po - Атмосферное давление - измеренное на уровне метеостанции атмосферное давление.
Tmin - Минимальная температура - минимум температуры воздуха на высоте 2 м над землей.
Tmax - Максимальная температура - максимум температуры воздуха на высоте 2 м над землей.
R - Количество осадков - Количество выпавших осадков за период времени, мм. При наведении курсора мыши на число - период времени, за который выпало указанное количество осадков.
R24 - Количество осадков - Количество выпавших осадков за 24 часа, мм.
S - Снежный покров - Высота снежного покрова, см. При наведении курсора мыши на число - состояние снежного покрова и степень покрытия местности в баллах.